User: anonymous   Login
Location: Unspecified
(0.0000°N, 0.0000°E)
Time: 00:04:55
(UTC+00:00)
Language:

NOAA 9 - Orbit

View from above orbital plane
View from above orbital plane
View from above satellite
View from above satellite

Ground track
Ground track

The orbit data is extracted from the following two-line orbital elements,

1 15427U 84123A   17172.92191734 -.00000023 +00000-0 +10473-4 0  9996
2 15427 098.8033 116.8400 0014027 309.7628 090.3021 14.16002004678814
Epoch (UTC): 21 June 2017 22:07:33
Eccentricity: 0.0014027
inclination: 98.8033°
perigee height: 829 km
apogee height: 849 km
right ascension of ascending node: 116.8400°
argument of perigee: 309.7628°
revolutions per day: 14.16002004
mean anomaly at epoch: 90.3021°
orbit number at epoch: 67881

The dashed part of the orbit path shows where the satellite is in the earth's shadow,  

DLR